User: anonymous   Login
Location: Unspecified
(0.0000°N, 0.0000°E)
Time: 21:42:25
(UTC+00:00)
Language:

CUBEBUG 2 - Orbit

View from above orbital plane
View from above orbital plane
View from above satellite
View from above satellite

Ground track
Ground track

The orbit data is extracted from the following two-line orbital elements,

1 39440U 13066AA  18048.93334642 +.00000182 +00000-0 +32568-4 0  9990
2 39440 097.6093 071.2100 0079657 222.0065 137.5020 14.75612820227137
Epoch (UTC): 17 February 2018 22:24:01
Eccentricity: 0.0079657
inclination: 97.6093°
perigee height: 587 km
apogee height: 699 km
right ascension of ascending node: 71.2100°
argument of perigee: 222.0065°
revolutions per day: 14.75612820
mean anomaly at epoch: 137.5020°
orbit number at epoch: 22713

The dashed part of the orbit path shows where the satellite is in the earth's shadow,  

DLR